sat.trackr.live / text

‹ back to catalog

STARLINK-32404

NORAD 61710 · 2024-196D

PAYLOAD ACTIVE UNKNOWN

§ Identity

Operator
Country
US
Launch date
2024-10-30
Launch site
AFETR
Launch vehicle
Mass (kg)
RCS (m²)

Purposes: comms

External: N2YO · Heavens-Above · Gunter

§ Orbital elements

Epoch: 2026-09-20T06:10:08.923008Z

Period
93.85 min
Inclination
53.1575°
Eccentricity
0.0000734
Mean motion
15.34390677 rev/d
Perigee alt
462.2 km
Apogee alt
463.2 km
Semi-major
6,840.9 km
B*
-2.5803e-5
RAAN
274.9081°
Arg perigee
46.0584°
Mean anomaly
314.0479°
Rev number
10,698

§ Raw data

STARLINK-324041 61710U 24196D   26263.25704772 -.00001247  00000+0 -25803-4 0  99972 61710  53.1575 274.9081 0000734  46.0584 314.0479 15.34390677106982

JSON: /api/v1/satellites/61710 · /tle

For live sub-satellite position, see the globe view (requires WebGL).

§ Visibility from observer

Set your observer location to see the next 7 days of passes ≥ 10°. The values pass through the URL so the page stays shareable.

No JS? Fill the form by hand. The geolocation button needs JavaScript.